Miscellaneous Local Product
Issued by NWS Hastings, NE

Home | Current Version | Previous Version | Text Only | Print | Product List | Glossary Off
Versions: 1 2 3 4 5 6 7 8 9 10 11 12 13 14 15 16 17 18 19 20 21 22 23 24 25 26 27 28 29 30 31 32 33 34 35 36 37 38 39 40 41 42 43 44 45 46 47 48 49 50

000
AXUS43 KGID 030502
MISGRI

GID CWA HOURLY WEATHER ROUNDUP
NATIONAL WEATHER SERVICE HASTINGS NE
1200 AM CDT THU SEP 03 2015

NOTE: "FAIR" INDICATES FEW OR NO CLOUDS BELOW 12,000 FEET WITH NO
SIGNIFICANT WEATHER AND/OR OBSTRUCTIONS TO VISIBILITY.

...SOUTH CENTRAL NEBRASKA...

CITY           SKY/WX    TMP DP  RH WIND       PRES   REMARKS
GRAND ISLAND   CLEAR     75  65  70 SE8       29.86S
HASTINGS       CLEAR     79  62  56 S9        29.86R
KEARNEY        CLEAR     75  61  60 SE10      29.85S
ORD            CLEAR     69  64  84 CALM      29.84F
YORK           CLEAR     75  68  78 S9        29.87S
AURORA         CLEAR     71  68  89 SE6       29.86S
LEXINGTON      CLEAR     71  64  79 E5        29.85S
HOLDREGE       CLEAR     71  61  72 SE3       29.85S
HEBRON         CLEAR     79  64  58 S12G20    29.87S

...NEBRASKA PANHANDLE...

CITY           SKY/WX    TMP DP  RH WIND       PRES   REMARKS
CHADRON        CLEAR     72  44  36 W3        29.83S
ALLIANCE       CLEAR     63  49  60 S9        29.91S
SCOTTSBLUFF    PTCLDY    69  53  56 E5        29.91F
SIDNEY         PTCLDY    68  44  42 S6        29.96S

...WESTERN AND NORTH CENTRAL NEBRASKA...

CITY           SKY/WX    TMP DP  RH WIND       PRES   REMARKS
VALENTINE      CLEAR     75  59  57 SW9       29.83S
AINSWORTH      CLEAR     75  62  63 S9        29.85S
ONEILL         CLEAR     74  71  88 S7        29.85S
BROKEN BOW     CLEAR     66  63  90 CALM      29.86F
IMPERIAL       PTCLDY    71  57  61 E3        29.88S
NORTH PLATTE   CLEAR     69  64  84 E7        29.86F
MCCOOK         PTCLDY    75  61  61 E8        29.84S

...EASTERN NEBRASKA...

CITY           SKY/WX    TMP DP  RH WIND       PRES   REMARKS
NORFOLK        CLEAR     75  69  81 SE8       29.84F
SO SIOUX CITY  CLEAR     72  68  87 SE7       29.84S
TEKAMAH        CLEAR     72  70  93 SE5       29.85S
COLUMBUS       CLEAR     72  64  78 CALM      29.86S
ALBION         CLEAR     71  67  87 SE6       29.86S
OMAHA EPPLEY   CLEAR     79  70  74 S13       29.87S
OFFUTT AFB     CLEAR     76  70  81 SE7       29.87S
MILLARD        CLEAR     78  70  75 SE3       29.88S
LINCOLN        CLEAR     76  67  73 S8        29.87R
NEBRASKA CITY  CLEAR     76  67  74 S13       29.89S
BEATRICE       CLEAR     78  66  68 S12       29.88S
FALLS CITY     CLEAR     79  69  71 S12       29.90S

...NORTHERN KANSAS...

CITY           SKY/WX    TMP DP  RH WIND       PRES   REMARKS
GOODLAND       MOCLDY    81  50  33 S13       29.91S
HILL CITY      PTCLDY    84  58  40 S15G21    29.85S
NORTON         CLEAR     79  50  36 S9        29.84S
PHILLIPSBURG   CLEAR     86  57  37 CALM      29.84R
SMITH CENTER   CLEAR     79  61  53 SE13      29.86S
HAYS           CLEAR     82  57  42 S16       29.87S
RUSSELL        CLEAR     81  60  48 S15       29.86R
CONCORDIA      CLEAR     78  65  63 S14       29.88R
SALINA         CLEAR     82  64  54 S15G23    29.88S
TOPEKA         CLEAR     79  68  69 S10       29.93S



USA.gov is the U.S. government's official web portal to all federal, state and local government web resources and services.